{"data":{"norad_id":52378,"epoch":"2026-05-24T13:58:53.046624Z","epoch_age_seconds":104370,"freshness":"FRESH","line1":"1 52378U 22045AZ  26144.58255841  .00000951  00000+0  77848-4 0  9995","line2":"2 52378  53.2156 208.4259 0001225  86.1996 273.9137 15.08829043227382","mean_motion":15.08829043,"eccentricity":0.0001225,"inclination_deg":53.2156,"raan_deg":208.4259,"arg_perigee_deg":86.1996,"mean_anomaly_deg":273.9137,"bstar":7.7848e-5,"rev_number":22738,"period_min":95.438247737918,"perigee_km":538.92943588202,"apogee_km":540.62432478271,"semimajor_km":6917.9138803324,"source":"CELESTRAK","updated_at":"2026-05-25T13:38:17.122380Z"}}